SWR82 LSZH-KTPA

Flight info

Callsign SWR82
Flight time N/A
Altitude 38000
Route VEBIT T10 TORPA DCT REKLA DCT RLP DCT ROTSI DCT AMODO DCT COHPA UM729 RESMI DCT TABOV DCT PIGOP DCT DITAL UN491 LGL UN502 ARGED DCT SENLO DCT JSY DCT GANTO DCT LARLA DCT RATKA/M086F380 DCT SOMAX NATG ELSIR/N0507F380 N402C ALLEX DCT KAYCC DCT KYLOH DCT NELIE Q75 TEUFL DCT BAAMF DADES2
Aircraft A359/H-SDE2E3GHIJ3J4J5LM1ORWXY/LB1D1

Departure

Time N/A
Airport Zürich Airport (LSZH)

Arrival

Time 2026-05-05 01:07
Airport Tampa International Airport (KTPA)
Time Latitude Longitude Altitude Speed Heading
2026-05-04 19:16 51.14372 -35.94536 37667 ft 453 kts 272°
2026-05-04 19:16 51.14270 -35.99524 37931 ft 448 kts 272°
2026-05-04 19:16 51.14163 -36.04457 38187 ft 445 kts 272°
2026-05-04 19:16 51.14058 -36.09366 38332 ft 444 kts 272°
2026-05-04 19:17 51.13957 -36.14292 38444 ft 444 kts 272°
2026-05-04 19:17 51.13857 -36.19210 38571 ft 443 kts 272°
2026-05-04 19:17 51.13757 -36.24106 38695 ft 443 kts 272°
2026-05-04 19:17 51.13656 -36.29008 38809 ft 443 kts 272°
2026-05-04 19:18 51.13554 -36.33905 38916 ft 442 kts 272°
2026-05-04 19:18 51.13449 -36.38800 39018 ft 442 kts 272°
2026-05-04 19:18 51.13342 -36.43688 39102 ft 442 kts 272°
2026-05-04 19:19 51.13121 -36.53470 39225 ft 442 kts 272°
2026-05-04 19:19 51.12893 -36.63187 39367 ft 442 kts 271°
2026-05-04 19:20 51.12656 -36.72958 39481 ft 442 kts 271°
2026-05-04 19:20 51.12411 -36.82729 39606 ft 442 kts 271°
2026-05-04 19:21 51.12158 -36.92501 39732 ft 442 kts 271°
2026-05-04 19:21 51.11897 -37.02270 39839 ft 441 kts 271°
2026-05-04 19:22 51.11628 -37.12028 39950 ft 441 kts 270°
2026-05-04 19:22 51.11351 -37.21780 40036 ft 441 kts 270°
2026-05-04 19:23 51.11065 -37.31530 40131 ft 441 kts 270°
2026-05-04 19:23 51.10774 -37.41227 40204 ft 441 kts 270°
2026-05-04 19:24 51.10472 -37.50997 40277 ft 442 kts 269°
2026-05-04 19:24 51.10162 -37.60761 40340 ft 442 kts 269°
2026-05-04 19:25 51.09844 -37.70516 40399 ft 442 kts 269°
2026-05-04 19:25 51.09518 -37.80285 40462 ft 442 kts 269°
2026-05-04 19:26 51.09183 -37.90060 40520 ft 442 kts 269°
2026-05-04 19:26 51.08840 -37.99835 40581 ft 442 kts 268°
2026-05-04 19:27 51.08489 -38.09604 40635 ft 442 kts 268°
2026-05-04 19:27 51.08129 -38.19384 40696 ft 442 kts 268°
2026-05-04 19:28 51.07762 -38.29140 40753 ft 442 kts 268°
2026-05-04 19:28 51.07389 -38.38834 40800 ft 442 kts 267°
2026-05-04 19:29 51.07006 -38.48588 40855 ft 442 kts 267°
2026-05-04 19:29 51.06614 -38.58339 40909 ft 442 kts 267°
2026-05-04 19:30 51.06215 -38.68087 40931 ft 442 kts 267°
2026-05-04 19:30 51.05807 -38.77853 40953 ft 442 kts 266°
2026-05-04 19:31 51.05390 -38.87613 40984 ft 442 kts 266°
2026-05-04 19:31 51.04966 -38.97371 41001 ft 443 kts 266°
2026-05-04 19:32 51.04533 -39.07142 41018 ft 443 kts 266°
2026-05-04 19:32 51.04095 -39.16840 41038 ft 443 kts 266°
2026-05-04 19:33 51.03645 -39.26619 41053 ft 444 kts 266°
2026-05-04 19:33 51.03186 -39.36406 41050 ft 445 kts 265°
2026-05-04 19:34 51.02719 -39.46209 41055 ft 445 kts 265°
2026-05-04 19:34 51.02242 -39.56027 41058 ft 446 kts 265°
2026-05-04 19:35 51.01758 -39.65838 41057 ft 446 kts 265°
2026-05-04 19:35 51.01264 -39.75673 41054 ft 447 kts 265°
2026-05-04 19:36 51.00760 -39.85520 41061 ft 447 kts 265°
2026-05-04 19:36 51.00252 -39.95307 41065 ft 448 kts 264°
2026-05-04 19:37 50.99728 -40.05171 41076 ft 448 kts 264°
2026-05-04 19:37 50.99169 -40.15041 41076 ft 449 kts 264°
2026-05-04 19:38 50.98595 -40.24922 41083 ft 450 kts 264°
2026-05-04 19:38 50.98016 -40.34817 41088 ft 450 kts 263°
2026-05-04 19:39 50.97431 -40.44713 41092 ft 451 kts 263°
2026-05-04 19:39 50.96839 -40.54605 41102 ft 451 kts 263°
2026-05-04 19:40 50.96237 -40.64516 41111 ft 451 kts 263°
2026-05-04 19:40 50.95625 -40.74443 41116 ft 452 kts 263°
2026-05-04 19:41 50.95005 -40.84358 41117 ft 452 kts 263°
2026-05-04 19:41 50.94380 -40.94219 41124 ft 453 kts 262°
2026-05-04 19:42 50.93741 -41.04168 41127 ft 453 kts 262°
2026-05-04 19:42 50.93094 -41.14106 41135 ft 454 kts 262°
2026-05-04 19:43 50.92438 -41.24056 41147 ft 454 kts 262°
2026-05-04 19:43 50.91772 -41.34026 41134 ft 455 kts 262°
2026-05-04 19:44 50.91097 -41.43987 41137 ft 455 kts 261°
2026-05-04 19:44 50.90412 -41.53975 41135 ft 456 kts 261°
2026-05-04 19:45 50.89719 -41.63962 41137 ft 456 kts 261°
2026-05-04 19:45 50.89016 -41.73954 41138 ft 457 kts 261°
2026-05-04 19:46 50.88304 -41.83955 41123 ft 457 kts 261°
2026-05-04 19:46 50.87587 -41.93902 41109 ft 458 kts 261°
2026-05-04 19:47 50.86854 -42.03943 41111 ft 459 kts 260°
2026-05-04 19:47 50.86112 -42.14003 41080 ft 460 kts 260°
2026-05-04 19:48 50.85360 -42.24058 41076 ft 460 kts 260°
2026-05-04 19:48 50.84598 -42.34143 41068 ft 461 kts 260°
2026-05-04 19:49 50.83827 -42.44219 41069 ft 462 kts 259°
2026-05-04 19:49 50.83051 -42.54252 41076 ft 462 kts 259°
2026-05-04 19:50 50.82261 -42.64351 41088 ft 463 kts 259°
2026-05-04 19:50 50.81461 -42.74463 41081 ft 463 kts 259°
2026-05-04 19:51 50.80651 -42.84580 41071 ft 464 kts 259°
2026-05-04 19:51 50.79832 -42.94703 41079 ft 464 kts 259°
2026-05-04 19:52 50.79003 -43.04829 41070 ft 465 kts 258°
2026-05-04 19:52 50.78164 -43.14968 41065 ft 466 kts 258°
2026-05-04 19:53 50.77314 -43.25128 41054 ft 467 kts 258°
2026-05-04 19:53 50.76454 -43.35303 41039 ft 467 kts 258°
2026-05-04 19:54 50.75591 -43.45411 41134 ft 465 kts 258°
2026-05-04 19:54 50.75159 -43.50446 41374 ft 460 kts 258°
2026-05-04 19:54 50.74728 -43.55448 41498 ft 459 kts 258°
2026-05-04 19:55 50.73855 -43.65438 41488 ft 460 kts 258°
2026-05-04 19:55 50.72972 -43.75444 41480 ft 461 kts 257°
2026-05-04 19:56 50.72080 -43.85464 41486 ft 461 kts 257°
2026-05-04 19:56 50.71178 -43.95503 41483 ft 462 kts 257°
2026-05-04 19:57 50.70266 -44.05542 41489 ft 463 kts 257°
2026-05-04 19:57 50.69345 -44.15600 41488 ft 464 kts 257°
2026-05-04 19:58 50.68413 -44.25666 41491 ft 464 kts 257°
2026-05-04 19:58 50.67631 -44.34042 41512 ft 464 kts 257°
2026-05-04 19:59 50.66682 -44.44115 41527 ft 465 kts 257°
2026-05-04 19:59 50.65723 -44.54200 41546 ft 465 kts 257°
2026-05-04 20:00 50.64755 -44.64279 41579 ft 465 kts 257°
2026-05-04 20:00 50.63620 -44.75989 41618 ft 465 kts 257°
2026-05-04 20:01 50.62794 -44.84427 41651 ft 465 kts 256°
2026-05-04 20:01 50.61799 -44.94494 41680 ft 466 kts 256°
2026-05-04 20:02 50.60801 -45.04512 41686 ft 466 kts 256°
2026-05-04 20:02 50.59788 -45.14587 41695 ft 466 kts 256°
2026-05-04 20:03 50.58766 -45.24661 41707 ft 466 kts 256°
2026-05-04 20:03 50.57734 -45.34741 41721 ft 466 kts 256°
2026-05-04 20:04 50.56697 -45.44793 41728 ft 466 kts 256°
2026-05-04 20:04 50.55648 -45.54867 41702 ft 467 kts 256°
2026-05-04 20:05 50.54596 -45.64873 41697 ft 467 kts 256°
2026-05-04 20:05 50.53528 -45.74955 41701 ft 467 kts 256°
2026-05-04 20:06 50.52451 -45.85038 41693 ft 467 kts 256°
2026-05-04 20:06 50.51363 -45.95127 41686 ft 468 kts 256°
2026-05-04 20:07 50.50269 -46.05193 41687 ft 468 kts 256°
2026-05-04 20:07 50.49165 -46.15268 41656 ft 469 kts 255°
2026-05-04 20:08 50.48057 -46.25294 41658 ft 469 kts 255°
2026-05-04 20:08 50.46933 -46.35374 41651 ft 469 kts 255°
2026-05-04 20:09 50.45801 -46.45453 41630 ft 469 kts 255°
2026-05-04 20:09 50.44657 -46.55545 41614 ft 470 kts 255°
2026-05-04 20:10 50.43505 -46.65636 41603 ft 470 kts 255°
2026-05-04 20:10 50.42343 -46.75729 41569 ft 471 kts 255°
2026-05-04 20:11 50.41170 -46.85837 41560 ft 471 kts 255°
2026-05-04 20:11 50.39988 -46.95942 41531 ft 471 kts 255°
2026-05-04 20:12 50.38796 -47.06047 41507 ft 472 kts 255°
2026-05-04 20:12 50.37595 -47.16160 41497 ft 472 kts 255°
2026-05-04 20:13 50.36384 -47.26272 41476 ft 472 kts 255°
2026-05-04 20:13 50.35162 -47.36396 41443 ft 473 kts 255°
2026-05-04 20:14 50.33931 -47.46520 41423 ft 473 kts 255°
2026-05-04 20:14 50.32698 -47.56581 41408 ft 474 kts 255°
2026-05-04 20:15 50.31447 -47.66711 41361 ft 475 kts 254°
2026-05-04 20:15 50.30186 -47.76849 41359 ft 475 kts 254°
2026-05-04 20:16 50.28916 -47.86986 41349 ft 475 kts 254°
2026-05-04 20:16 50.27636 -47.97119 41332 ft 475 kts 254°
2026-05-04 20:17 50.26348 -48.07251 41334 ft 475 kts 254°
2026-05-04 20:17 50.25049 -48.17387 41326 ft 475 kts 254°
2026-05-04 20:18 50.23742 -48.27508 41304 ft 475 kts 254°
2026-05-04 20:18 50.22435 -48.37560 41313 ft 475 kts 254°
2026-05-04 20:19 50.21112 -48.47667 41280 ft 475 kts 254°
2026-05-04 20:19 50.19776 -48.57791 41272 ft 475 kts 254°
2026-05-04 20:20 50.18434 -48.67897 41262 ft 475 kts 253°
2026-05-04 20:20 50.17082 -48.78000 41258 ft 475 kts 253°
2026-05-04 20:21 50.15722 -48.88096 41243 ft 475 kts 253°
2026-05-04 20:21 50.13673 -49.03173 41237 ft 475 kts 253°
2026-05-04 20:22 50.12291 -49.13254 41205 ft 476 kts 253°
2026-05-04 20:22 50.10899 -49.23338 41186 ft 476 kts 253°
2026-05-04 20:23 50.09497 -49.33421 41177 ft 476 kts 253°
2026-05-04 20:23 50.08095 -49.43441 41167 ft 476 kts 253°
2026-05-04 20:24 50.06676 -49.53517 41133 ft 477 kts 253°
2026-05-04 20:24 50.05247 -49.63591 41121 ft 477 kts 253°
2026-05-04 20:25 50.03808 -49.73668 41101 ft 477 kts 253°
2026-05-04 20:25 50.02361 -49.83737 41089 ft 477 kts 253°
2026-05-04 20:26 50.00904 -49.93810 41078 ft 477 kts 253°
2026-05-04 20:26 49.99090 -50.03699 41033 ft 474 kts 246°
2026-05-04 20:27 49.96863 -50.13249 41033 ft 473 kts 245°
2026-05-04 20:27 49.94543 -50.22820 41012 ft 473 kts 245°
2026-05-04 20:28 49.92215 -50.32372 41011 ft 473 kts 245°
2026-05-04 20:28 49.89888 -50.41928 41011 ft 473 kts 245°
2026-05-04 20:29 49.87561 -50.51461 41010 ft 473 kts 245°
2026-05-04 20:29 49.85228 -50.60986 41012 ft 472 kts 245°
2026-05-04 20:30 49.82886 -50.70501 41006 ft 472 kts 245°
2026-05-04 20:30 49.80550 -50.79951 41009 ft 472 kts 245°
2026-05-04 20:31 49.78195 -50.89436 40999 ft 472 kts 245°
2026-05-04 20:31 49.75832 -50.98912 41000 ft 472 kts 245°
2026-05-04 20:32 49.73460 -51.08392 40984 ft 472 kts 245°
2026-05-04 20:32 49.71080 -51.17856 40978 ft 472 kts 245°
2026-05-04 20:33 49.68692 -51.27309 40962 ft 472 kts 245°
2026-05-04 20:33 49.66315 -51.36687 40951 ft 472 kts 245°
2026-05-04 20:34 49.63912 -51.46126 40939 ft 472 kts 245°
2026-05-04 20:34 49.61499 -51.55561 40938 ft 472 kts 244°
2026-05-04 20:35 49.59081 -51.64975 40928 ft 472 kts 244°
2026-05-04 20:35 49.56652 -51.74400 40920 ft 472 kts 244°
2026-05-04 20:36 49.54239 -51.83720 40921 ft 472 kts 244°
2026-05-04 20:36 49.51801 -51.93100 40911 ft 472 kts 244°
2026-05-04 20:37 49.49359 -52.02476 40917 ft 471 kts 245°
2026-05-04 20:37 49.47014 -52.11898 40919 ft 472 kts 245°
2026-05-04 20:38 49.44699 -52.21350 40895 ft 472 kts 245°
2026-05-04 20:38 49.42379 -52.30733 40891 ft 472 kts 245°
2026-05-04 20:39 49.40028 -52.40147 40885 ft 472 kts 245°
2026-05-04 20:39 49.37669 -52.49531 40876 ft 472 kts 245°
2026-05-04 20:40 49.35299 -52.58915 40870 ft 471 kts 245°
2026-05-04 20:40 49.32923 -52.68289 40834 ft 472 kts 245°
2026-05-04 20:41 49.30539 -52.77662 40825 ft 472 kts 245°
2026-05-04 20:41 49.28148 -52.87021 40809 ft 472 kts 245°
2026-05-04 20:42 49.25747 -52.96380 40806 ft 472 kts 245°
2026-05-04 20:42 49.23340 -53.05729 40798 ft 472 kts 245°
2026-05-04 20:43 49.20920 -53.15085 40780 ft 472 kts 245°
2026-05-04 20:43 49.18495 -53.24422 40775 ft 472 kts 245°
2026-05-04 20:44 49.16061 -53.33757 40766 ft 472 kts 245°
2026-05-04 20:44 49.13640 -53.43004 40776 ft 472 kts 245°
2026-05-04 20:45 49.11193 -53.52312 40769 ft 472 kts 245°
2026-05-04 20:45 49.08742 -53.61599 40776 ft 471 kts 245°
2026-05-04 20:46 49.06699 -53.69309 40783 ft 471 kts 245°
2026-05-04 20:46 49.03835 -53.80078 40786 ft 471 kts 245°
2026-05-04 20:47 49.01366 -53.89320 40803 ft 470 kts 245°
2026-05-04 20:47 48.99293 -53.97055 40800 ft 470 kts 245°
2026-05-04 20:48 48.96817 -54.06257 40833 ft 470 kts 245°
2026-05-04 20:48 48.94328 -54.15469 40797 ft 471 kts 245°
2026-05-04 20:49 48.91852 -54.24597 40803 ft 471 kts 245°
2026-05-04 20:49 48.89343 -54.33813 40801 ft 471 kts 245°
2026-05-04 20:50 48.86830 -54.43005 40803 ft 471 kts 245°
2026-05-04 20:50 48.84310 -54.52188 40799 ft 471 kts 245°
2026-05-04 20:51 48.81797 -54.61311 40798 ft 471 kts 245°
2026-05-04 20:51 48.79260 -54.70483 40811 ft 471 kts 244°
2026-05-04 20:52 48.76720 -54.79634 40815 ft 470 kts 244°
2026-05-04 20:52 48.74175 -54.88768 40829 ft 470 kts 244°
2026-05-04 20:53 48.71622 -54.97893 40836 ft 470 kts 244°
2026-05-04 20:53 48.69061 -55.07012 40837 ft 470 kts 244°
2026-05-04 20:54 48.66508 -55.16067 40816 ft 471 kts 244°
2026-05-04 20:54 48.63931 -55.25174 40822 ft 471 kts 244°
2026-05-04 20:55 48.61347 -55.34269 40818 ft 471 kts 244°
2026-05-04 20:55 48.58754 -55.43362 40820 ft 471 kts 244°
2026-05-04 20:56 48.56150 -55.52457 40801 ft 472 kts 244°
2026-05-04 20:56 48.53536 -55.61556 40799 ft 472 kts 244°
2026-05-04 20:57 48.50915 -55.70644 40798 ft 472 kts 244°
2026-05-04 20:57 48.48289 -55.79718 40789 ft 472 kts 244°
2026-05-04 20:58 48.45669 -55.88735 40796 ft 472 kts 244°
2026-05-04 20:58 48.43027 -55.97793 40791 ft 472 kts 244°
2026-05-04 20:59 48.40374 -56.06854 40791 ft 472 kts 244°
2026-05-04 20:59 48.37717 -56.15897 40804 ft 472 kts 244°
2026-05-04 21:00 48.35053 -56.24930 40799 ft 472 kts 244°
2026-05-04 21:00 48.32385 -56.33940 40833 ft 471 kts 244°
2026-05-04 21:01 48.29714 -56.42933 40851 ft 471 kts 244°
2026-05-04 21:01 48.27031 -56.51927 40861 ft 471 kts 244°
2026-05-04 21:02 48.24367 -56.60831 40906 ft 471 kts 244°
2026-05-04 21:02 48.21679 -56.69779 40937 ft 470 kts 244°
2026-05-04 21:03 48.18988 -56.78708 40967 ft 470 kts 244°
2026-05-04 21:03 48.16291 -56.87621 40996 ft 470 kts 244°
2026-05-04 21:04 48.13589 -56.96518 41036 ft 469 kts 244°
2026-05-04 21:04 48.10882 -57.05399 41056 ft 469 kts 244°
2026-05-04 21:05 48.08170 -57.14267 41103 ft 468 kts 244°
2026-05-04 21:05 48.05454 -57.23119 41133 ft 468 kts 244°
2026-05-04 21:06 48.02752 -57.31894 41180 ft 467 kts 244°
2026-05-04 21:06 48.00028 -57.40704 41183 ft 467 kts 244°
2026-05-04 21:07 47.97301 -57.49495 41259 ft 466 kts 243°
2026-05-04 21:07 47.94573 -57.58256 41301 ft 465 kts 243°
2026-05-04 21:08 47.91842 -57.66999 41327 ft 464 kts 243°
2026-05-04 21:08 47.89109 -57.75719 41335 ft 464 kts 243°
2026-05-04 21:09 47.86370 -57.84428 41354 ft 464 kts 243°
2026-05-04 21:09 47.83630 -57.93110 41384 ft 463 kts 243°
2026-05-04 21:10 47.80876 -58.01802 41356 ft 464 kts 243°
2026-05-04 21:10 47.78137 -58.10421 41381 ft 463 kts 243°
2026-05-04 21:11 47.75377 -58.19075 41396 ft 463 kts 243°
2026-05-04 21:11 47.72609 -58.27724 41403 ft 463 kts 243°
2026-05-04 21:12 47.69835 -58.36364 41437 ft 462 kts 243°
2026-05-04 21:12 47.67063 -58.44973 41479 ft 461 kts 243°
2026-05-04 21:13 47.64286 -58.53565 41490 ft 461 kts 243°
2026-05-04 21:13 47.61526 -58.62070 41477 ft 461 kts 243°
2026-05-04 21:14 47.58741 -58.70628 41500 ft 460 kts 243°
2026-05-04 21:14 47.55953 -58.79165 41497 ft 460 kts 243°
2026-05-04 21:15 47.53158 -58.87696 41453 ft 461 kts 243°
2026-05-04 21:15 47.50350 -58.96237 41459 ft 461 kts 243°
2026-05-04 21:16 47.47541 -59.04755 41438 ft 461 kts 243°
2026-05-04 21:16 47.44739 -59.13226 41426 ft 461 kts 243°
2026-05-04 21:17 47.41909 -59.21753 41391 ft 462 kts 243°
2026-05-04 21:17 47.39070 -59.30274 41391 ft 462 kts 243°
2026-05-04 21:18 47.36226 -59.38783 41372 ft 462 kts 243°
2026-05-04 21:18 47.33371 -59.47298 41357 ft 463 kts 243°
2026-05-04 21:19 47.30527 -59.55753 41363 ft 463 kts 243°
2026-05-04 21:19 47.27654 -59.64265 41358 ft 463 kts 243°
2026-05-04 21:20 47.24779 -59.72760 41359 ft 463 kts 243°
2026-05-04 21:20 47.21895 -59.81247 41361 ft 463 kts 243°
2026-05-04 21:21 47.19022 -59.89676 41360 ft 464 kts 243°
2026-05-04 21:21 47.16124 -59.98149 41365 ft 464 kts 243°
2026-05-04 21:22 47.13221 -60.06613 41374 ft 464 kts 243°
2026-05-04 21:22 47.10312 -60.15066 41383 ft 464 kts 243°
2026-05-04 21:23 47.07397 -60.23510 41391 ft 464 kts 242°
2026-05-04 21:23 47.04478 -60.31935 41415 ft 463 kts 242°
2026-05-04 21:24 47.01574 -60.40294 41481 ft 462 kts 242°
2026-05-04 21:24 46.98659 -60.48656 41535 ft 461 kts 242°
2026-05-04 21:25 46.95739 -60.57007 41615 ft 459 kts 242°
2026-05-04 21:25 46.92823 -60.65319 41628 ft 458 kts 242°
2026-05-04 21:26 46.89917 -60.73577 41620 ft 459 kts 242°
2026-05-04 21:26 46.86989 -60.81870 41606 ft 459 kts 242°
2026-05-04 21:27 46.84055 -60.90157 41587 ft 460 kts 242°
2026-05-04 21:27 46.81109 -60.98451 41580 ft 460 kts 242°
2026-05-04 21:28 46.78153 -61.06746 41552 ft 460 kts 242°
2026-05-04 21:28 46.75191 -61.15031 41545 ft 461 kts 242°
2026-05-04 21:29 46.72224 -61.23306 41559 ft 460 kts 242°
2026-05-04 21:29 46.69251 -61.31574 41562 ft 460 kts 242°
2026-05-04 21:30 46.66291 -61.39778 41574 ft 460 kts 242°
2026-05-04 21:30 46.63306 -61.48025 41562 ft 460 kts 242°
2026-05-04 21:31 46.60346 -61.56180 42115 ft 446 kts 242°
2026-05-04 21:31 46.58906 -61.60138 42429 ft 439 kts 242°
2026-05-04 21:32 46.56055 -61.67956 42482 ft 437 kts 242°
2026-05-04 21:32 46.53195 -61.75775 42410 ft 438 kts 242°
2026-05-04 21:33 46.50351 -61.83529 42354 ft 438 kts 242°
2026-05-04 21:33 46.47484 -61.91323 42327 ft 437 kts 242°
2026-05-04 21:34 46.44616 -61.99097 42314 ft 437 kts 242°
2026-05-04 21:34 46.41748 -62.06850 42308 ft 436 kts 242°
2026-05-04 21:35 46.39355 -62.13299 42310 ft 435 kts 242°
2026-05-04 21:35 46.36489 -62.21007 42309 ft 434 kts 242°
2026-05-04 21:36 46.33619 -62.28700 42312 ft 434 kts 241°
2026-05-04 21:36 46.30748 -62.36374 42311 ft 433 kts 241°
2026-05-04 21:37 46.27886 -62.44005 42301 ft 432 kts 241°
2026-05-04 21:37 46.25034 -62.51586 42281 ft 431 kts 241°
2026-05-04 21:38 46.22164 -62.59196 42275 ft 430 kts 241°
2026-05-04 21:38 46.19296 -62.66778 42268 ft 429 kts 241°
2026-05-04 21:39 46.16605 -62.73873 42258 ft 429 kts 241°
2026-05-04 21:39 46.13737 -62.81414 42255 ft 428 kts 241°
2026-05-04 21:40 46.10874 -62.88922 42244 ft 427 kts 241°
2026-05-04 21:40 46.08031 -62.96356 42233 ft 426 kts 241°
2026-05-04 21:41 46.05167 -63.03824 42221 ft 425 kts 241°
2026-05-04 21:41 46.02297 -63.11290 42220 ft 425 kts 241°
2026-05-04 21:42 45.99431 -63.18722 42213 ft 425 kts 241°
2026-05-04 21:42 45.96557 -63.26155 42208 ft 424 kts 241°
2026-05-04 21:43 45.93706 -63.33510 42210 ft 424 kts 241°
2026-05-04 21:43 45.90833 -63.40902 42207 ft 424 kts 241°
2026-05-04 21:44 45.87953 -63.48289 42207 ft 423 kts 241°
2026-05-04 21:44 45.85077 -63.55650 42202 ft 423 kts 241°
2026-05-04 21:45 45.82192 -63.63013 42206 ft 423 kts 241°
2026-05-04 21:45 45.79323 -63.70315 42202 ft 422 kts 240°
2026-05-04 21:46 45.76418 -63.77688 42202 ft 422 kts 240°
2026-05-04 21:46 45.73543 -63.84967 42214 ft 422 kts 240°
2026-05-04 21:47 45.70651 -63.92270 42202 ft 422 kts 240°
2026-05-04 21:47 45.67755 -63.99564 42201 ft 421 kts 240°
2026-05-04 21:48 45.64854 -64.06850 42205 ft 421 kts 240°
2026-05-04 21:48 45.61949 -64.14128 42208 ft 421 kts 240°
2026-05-04 21:49 45.59064 -64.21338 42212 ft 421 kts 240°
2026-05-04 21:49 45.56157 -64.28581 42222 ft 420 kts 240°
2026-05-04 21:50 45.53246 -64.35818 42217 ft 420 kts 240°
2026-05-04 21:50 45.50331 -64.43045 42228 ft 420 kts 240°
2026-05-04 21:51 45.47418 -64.50249 42232 ft 419 kts 240°
2026-05-04 21:51 45.44498 -64.57449 42248 ft 419 kts 240°
2026-05-04 21:52 45.41581 -64.64626 42250 ft 419 kts 240°
2026-05-04 21:52 45.38657 -64.71800 42254 ft 418 kts 240°
2026-05-04 21:53 45.35750 -64.78914 42266 ft 418 kts 240°
2026-05-04 21:53 45.32827 -64.86049 42292 ft 417 kts 240°
2026-05-04 21:54 45.29907 -64.93160 42345 ft 415 kts 240°
2026-05-04 21:54 45.27002 -65.00217 42399 ft 413 kts 240°
2026-05-04 21:55 45.24095 -65.07260 42378 ft 413 kts 240°
2026-05-04 21:55 45.21194 -65.14271 42381 ft 412 kts 240°
2026-05-04 21:56 45.18290 -65.21271 42363 ft 411 kts 240°
2026-05-04 21:56 45.15385 -65.28258 42355 ft 411 kts 240°
2026-05-04 21:57 45.12484 -65.35217 42344 ft 410 kts 240°
2026-05-04 21:57 45.09583 -65.42158 42322 ft 409 kts 240°
2026-05-04 21:58 45.06730 -65.48966 42274 ft 403 kts 240°
2026-05-04 21:58 45.03870 -65.55776 42276 ft 402 kts 240°
2026-05-04 21:59 45.01010 -65.62570 42286 ft 401 kts 240°
2026-05-04 21:59 44.98157 -65.69331 42290 ft 399 kts 240°
2026-05-04 22:00 44.95319 -65.76042 42288 ft 397 kts 240°
2026-05-04 22:00 44.92486 -65.82727 42294 ft 395 kts 240°
2026-05-04 22:01 44.89681 -65.89325 42296 ft 394 kts 240°
2026-05-04 22:01 44.86867 -65.95929 42295 ft 392 kts 240°
2026-05-04 22:02 44.84064 -66.02493 42294 ft 390 kts 240°
2026-05-04 22:02 44.81275 -66.09012 42295 ft 387 kts 240°
2026-05-04 22:03 44.78501 -66.15479 42294 ft 384 kts 240°
2026-05-04 22:03 44.75705 -66.21986 41566 ft 402 kts 240°
2026-05-04 22:03 44.74211 -66.25462 40631 ft 428 kts 240°
2026-05-04 22:04 44.72637 -66.29118 40064 ft 444 kts 240°
2026-05-04 22:04 44.71017 -66.32872 39820 ft 452 kts 240°
2026-05-04 22:04 44.69378 -66.36662 39783 ft 456 kts 240°
2026-05-04 22:05 44.66078 -66.44272 39789 ft 460 kts 240°
2026-05-04 22:05 44.62727 -66.51984 39792 ft 464 kts 240°
2026-05-04 22:06 44.59345 -66.59747 39795 ft 467 kts 240°
2026-05-04 22:06 44.55944 -66.67533 39797 ft 469 kts 240°
2026-05-04 22:07 44.52530 -66.75329 39800 ft 469 kts 240°
2026-05-04 22:07 44.49114 -66.83108 39804 ft 469 kts 240°
2026-05-04 22:08 44.45708 -66.90843 39805 ft 469 kts 239°
2026-05-04 22:08 44.42384 -66.98696 39811 ft 468 kts 245°
2026-05-04 22:09 44.40133 -67.07233 39810 ft 467 kts 253°
2026-05-04 22:09 44.38288 -67.15958 39812 ft 468 kts 254°
2026-05-04 22:10 44.36493 -67.24714 39811 ft 468 kts 254°
2026-05-04 22:10 44.34678 -67.33451 39812 ft 468 kts 254°
2026-05-04 22:11 44.32850 -67.42131 39813 ft 469 kts 253°
2026-05-04 22:11 44.30985 -67.50922 39809 ft 469 kts 253°
2026-05-04 22:12 44.29137 -67.59597 39810 ft 469 kts 253°
2026-05-04 22:12 44.27273 -67.68318 39809 ft 469 kts 253°
2026-05-04 22:13 44.25400 -67.77040 39809 ft 469 kts 253°
2026-05-04 22:13 44.23519 -67.85766 39808 ft 469 kts 253°
2026-05-04 22:14 44.21645 -67.94425 39811 ft 469 kts 253°
2026-05-04 22:14 44.19755 -68.03123 39810 ft 469 kts 253°
2026-05-04 22:15 44.17856 -68.11823 39812 ft 469 kts 253°
2026-05-04 22:15 44.15953 -68.20509 39806 ft 469 kts 253°
2026-05-04 22:16 44.14040 -68.29203 39806 ft 469 kts 253°
2026-05-04 22:16 44.12119 -68.37896 39809 ft 469 kts 253°
2026-05-04 22:17 44.10204 -68.46529 39812 ft 470 kts 253°
2026-05-04 22:17 44.08269 -68.55213 39812 ft 470 kts 253°
2026-05-04 22:18 44.06329 -68.63891 39808 ft 470 kts 253°
2026-05-04 22:18 44.04379 -68.72572 39806 ft 470 kts 253°
2026-05-04 22:19 44.02423 -68.81248 39801 ft 471 kts 253°
2026-05-04 22:19 44.00459 -68.89926 39797 ft 471 kts 253°
2026-05-04 22:20 43.98486 -68.98607 39796 ft 471 kts 253°
2026-05-04 22:20 43.96508 -69.07277 39799 ft 471 kts 253°
2026-05-04 22:21 43.94533 -69.15896 39796 ft 471 kts 253°
2026-05-04 22:21 43.92540 -69.24565 39798 ft 472 kts 253°
2026-05-04 22:22 43.90538 -69.33233 39799 ft 472 kts 252°
2026-05-04 22:22 43.88529 -69.41901 39801 ft 472 kts 252°
2026-05-04 22:23 43.86854 -69.49098 39798 ft 473 kts 252°
2026-05-04 22:23 43.84829 -69.57770 39800 ft 473 kts 252°
2026-05-04 22:24 43.82799 -69.66433 39797 ft 473 kts 252°
2026-05-04 22:24 43.80759 -69.75100 39800 ft 473 kts 252°
2026-05-04 22:25 43.78713 -69.83761 39803 ft 473 kts 252°
2026-05-04 22:25 43.76672 -69.92369 39803 ft 473 kts 252°
2026-05-04 22:26 43.74614 -70.01015 39800 ft 473 kts 252°
2026-05-04 22:26 43.72547 -70.09665 39782 ft 473 kts 252°
2026-05-04 22:27 43.70474 -70.18302 39777 ft 474 kts 252°
2026-05-04 22:27 43.68394 -70.26942 39779 ft 474 kts 252°
2026-05-04 22:28 43.66308 -70.35569 39776 ft 473 kts 252°
2026-05-04 22:28 43.64211 -70.44211 39775 ft 473 kts 252°
2026-05-04 22:29 43.62112 -70.52829 39779 ft 473 kts 252°
2026-05-04 22:29 43.60019 -70.61390 39785 ft 473 kts 252°
2026-05-04 22:30 43.57908 -70.69993 39785 ft 473 kts 252°
2026-05-04 22:30 43.55639 -70.78516 39783 ft 474 kts 245°
2026-05-04 22:31 43.51988 -70.86098 39780 ft 478 kts 229°
2026-05-04 22:31 43.46744 -70.91794 39784 ft 484 kts 214°
2026-05-04 22:32 43.40891 -70.96425 39774 ft 486 kts 212°
2026-05-04 22:32 43.35004 -71.00901 39775 ft 486 kts 212°
2026-05-04 22:33 43.29098 -71.05432 39774 ft 486 kts 213°
2026-05-04 22:33 43.23214 -71.09986 39777 ft 485 kts 213°
2026-05-04 22:34 43.17331 -71.14543 39779 ft 485 kts 213°
2026-05-04 22:34 43.11454 -71.19086 39790 ft 485 kts 213°
2026-05-04 22:35 43.05814 -71.24067 39789 ft 480 kts 223°
2026-05-04 22:35 43.02091 -71.28679 39790 ft 478 kts 226°
2026-05-04 22:36 42.97588 -71.34640 39784 ft 478 kts 227°
2026-05-04 22:36 42.92872 -71.40961 39782 ft 478 kts 227°
2026-05-04 22:37 42.88128 -71.47275 39783 ft 478 kts 227°
2026-05-04 22:37 42.83463 -71.53440 39803 ft 478 kts 227°
2026-05-04 22:38 42.78685 -71.59733 39801 ft 478 kts 227°
2026-05-04 22:38 42.73895 -71.66026 39806 ft 478 kts 227°
2026-05-04 22:39 42.69114 -71.72294 39823 ft 477 kts 227°
2026-05-04 22:39 42.64324 -71.78561 39821 ft 477 kts 227°
2026-05-04 22:40 42.59535 -71.84811 39823 ft 477 kts 227°
2026-05-04 22:40 42.54783 -71.91001 39823 ft 477 kts 226°
2026-05-04 22:41 42.49990 -71.97229 39828 ft 476 kts 226°
2026-05-04 22:41 42.45205 -72.03434 39842 ft 476 kts 226°
2026-05-04 22:42 42.40412 -72.09635 39840 ft 476 kts 226°
2026-05-04 22:42 42.35620 -72.15821 39840 ft 476 kts 226°
2026-05-04 22:43 42.30818 -72.22006 39841 ft 476 kts 226°
2026-05-04 22:43 42.26052 -72.28131 39811 ft 476 kts 226°
2026-05-04 22:44 42.21246 -72.34295 39799 ft 476 kts 226°
2026-05-04 22:44 42.16444 -72.40439 39794 ft 476 kts 226°
2026-05-04 22:45 42.11641 -72.46571 39793 ft 475 kts 226°
2026-05-04 22:45 42.04459 -72.55716 39815 ft 475 kts 226°
2026-05-04 22:46 41.99646 -72.61826 39837 ft 475 kts 226°
2026-05-04 22:46 41.94840 -72.67916 39837 ft 475 kts 226°
2026-05-04 22:47 41.90107 -72.74107 39838 ft 474 kts 229°
2026-05-04 22:47 41.85522 -72.80474 39848 ft 474 kts 229°
2026-05-04 22:48 41.80938 -72.86826 39850 ft 474 kts 229°
2026-05-04 22:48 41.76326 -72.93139 39864 ft 473 kts 229°
2026-05-04 22:49 41.71713 -72.99407 39876 ft 473 kts 229°
2026-05-04 22:49 41.67085 -73.05676 39886 ft 473 kts 229°
2026-05-04 22:50 41.62462 -73.11929 39882 ft 472 kts 229°
2026-05-04 22:50 41.57867 -73.18133 39895 ft 472 kts 229°
2026-05-04 22:51 41.53249 -73.24355 39898 ft 471 kts 228°
2026-05-04 22:51 41.48625 -73.30571 39893 ft 471 kts 229°
2026-05-04 22:52 41.44029 -73.36785 39876 ft 471 kts 229°
2026-05-04 22:52 41.39458 -73.43034 39879 ft 470 kts 229°
2026-05-04 22:53 41.34883 -73.49274 39878 ft 470 kts 229°
2026-05-04 22:53 41.30309 -73.55487 39877 ft 470 kts 229°
2026-05-04 22:54 41.26023 -73.61989 39876 ft 467 kts 233°
2026-05-04 22:54 41.21949 -73.68650 39879 ft 467 kts 234°
2026-05-04 22:55 41.17876 -73.75368 39885 ft 467 kts 234°
2026-05-04 22:55 41.13799 -73.82087 39885 ft 466 kts 234°
2026-05-04 22:56 41.09781 -73.88840 39882 ft 466 kts 235°
2026-05-04 22:56 41.05784 -73.95584 39879 ft 465 kts 234°
2026-05-04 22:57 41.02526 -74.01056 39871 ft 465 kts 234°
2026-05-04 22:57 40.99850 -74.05532 39870 ft 465 kts 234°
2026-05-04 22:58 40.95810 -74.12273 39862 ft 464 kts 234°
2026-05-04 22:58 40.92044 -74.18543 39868 ft 464 kts 234°
2026-05-04 22:59 40.88062 -74.25159 39871 ft 463 kts 234°
2026-05-04 22:59 40.85502 -74.29406 39866 ft 463 kts 234°
2026-05-04 23:00 40.81484 -74.36059 39891 ft 462 kts 234°
2026-05-04 23:00 40.77481 -74.42675 39889 ft 461 kts 234°
2026-05-04 23:01 40.73471 -74.49289 39886 ft 461 kts 234°
2026-05-04 23:01 40.69484 -74.55848 39864 ft 461 kts 234°
2026-05-04 23:02 40.65477 -74.62426 39853 ft 460 kts 234°
2026-05-04 23:02 40.61467 -74.68998 39857 ft 460 kts 234°
2026-05-04 23:03 40.57458 -74.75547 39856 ft 459 kts 234°
2026-05-04 23:03 40.53166 -74.81807 39860 ft 461 kts 230°
2026-05-04 23:04 40.48710 -74.87888 39864 ft 461 kts 230°
2026-05-04 23:04 40.44293 -74.93990 39893 ft 460 kts 231°
2026-05-04 23:05 40.39942 -75.00097 39878 ft 460 kts 231°
2026-05-04 23:05 40.35590 -75.06220 39886 ft 460 kts 231°
2026-05-04 23:06 40.31221 -75.12348 39886 ft 459 kts 231°
2026-05-04 23:06 40.26857 -75.18456 39887 ft 459 kts 231°
2026-05-04 23:07 40.22485 -75.24563 39901 ft 458 kts 231°
2026-05-04 23:07 40.18201 -75.30534 39906 ft 458 kts 231°
2026-05-04 23:08 40.13838 -75.36606 39905 ft 458 kts 231°
2026-05-04 23:08 40.10209 -75.41658 39904 ft 458 kts 231°
2026-05-04 23:09 40.05838 -75.47715 39912 ft 458 kts 231°
2026-05-04 23:09 40.01463 -75.53759 39920 ft 458 kts 231°
2026-05-04 23:10 39.97072 -75.59819 39910 ft 458 kts 231°
2026-05-04 23:10 39.92724 -75.65809 39913 ft 458 kts 231°
2026-05-04 23:11 39.88481 -75.71983 39902 ft 455 kts 234°
2026-05-04 23:11 39.84549 -75.78444 39904 ft 455 kts 236°
2026-05-04 23:12 39.80626 -75.84912 39898 ft 455 kts 235°
2026-05-04 23:12 39.76647 -75.91310 39903 ft 455 kts 234°
2026-05-04 23:13 39.72657 -75.97647 39907 ft 455 kts 234°
2026-05-04 23:13 39.68636 -76.04014 39901 ft 456 kts 234°
2026-05-04 23:14 39.64612 -76.10382 39903 ft 456 kts 234°
2026-05-04 23:14 39.60584 -76.16747 39906 ft 456 kts 234°
2026-05-04 23:15 39.56531 -76.23083 39901 ft 456 kts 233°
2026-05-04 23:15 39.52452 -76.29319 39903 ft 457 kts 233°
2026-05-04 23:16 39.48342 -76.35595 39900 ft 456 kts 233°
2026-05-04 23:16 39.44182 -76.41818 39925 ft 458 kts 231°
2026-05-04 23:17 39.39672 -76.47668 39923 ft 460 kts 228°
2026-05-04 23:17 39.35093 -76.53441 39926 ft 459 kts 229°
2026-05-04 23:18 39.30556 -76.59271 39916 ft 459 kts 229°
2026-05-04 23:18 39.26090 -76.65076 40159 ft 455 kts 229°
2026-05-04 23:19 39.23848 -76.67991 40453 ft 450 kts 229°
2026-05-04 23:19 39.21677 -76.70814 40645 ft 448 kts 229°
2026-05-04 23:19 39.19475 -76.73675 40772 ft 448 kts 229°
2026-05-04 23:19 39.17279 -76.76527 40890 ft 448 kts 229°
2026-05-04 23:20 39.15080 -76.79378 41015 ft 448 kts 229°
2026-05-04 23:20 39.12877 -76.82230 41125 ft 448 kts 229°
2026-05-04 23:20 39.08556 -76.87816 41304 ft 448 kts 229°
2026-05-04 23:21 39.04196 -76.93439 41483 ft 448 kts 229°
2026-05-04 23:21 38.99846 -76.99040 41631 ft 448 kts 229°
2026-05-04 23:22 38.95418 -77.04740 41819 ft 448 kts 229°
2026-05-04 23:22 38.91009 -77.10407 41960 ft 448 kts 229°
2026-05-04 23:23 38.86602 -77.16062 42116 ft 448 kts 229°
2026-05-04 23:23 38.82194 -77.21708 42242 ft 448 kts 229°
2026-05-04 23:24 38.77785 -77.27344 42386 ft 448 kts 229°
2026-05-04 23:24 38.73368 -77.32979 42517 ft 448 kts 229°
2026-05-04 23:25 38.68879 -77.38438 42669 ft 449 kts 226°
2026-05-04 23:25 38.64193 -77.43741 42769 ft 449 kts 226°
2026-05-04 23:26 38.59511 -77.49044 42887 ft 449 kts 226°
2026-05-04 23:26 38.54849 -77.54385 42921 ft 450 kts 226°
2026-05-04 23:27 38.50189 -77.59744 42923 ft 452 kts 226°
2026-05-04 23:27 38.45504 -77.65125 42920 ft 453 kts 226°
2026-05-04 23:28 38.40801 -77.70512 42926 ft 455 kts 226°
2026-05-04 23:28 38.36086 -77.75902 42928 ft 456 kts 226°
2026-05-04 23:29 38.31391 -77.81258 42931 ft 456 kts 226°
2026-05-04 23:29 38.26646 -77.86663 42930 ft 457 kts 226°
2026-05-04 23:30 38.21905 -77.92052 42917 ft 457 kts 226°
2026-05-04 23:30 38.17156 -77.97442 42923 ft 457 kts 226°
2026-05-04 23:31 38.12442 -78.02781 42917 ft 457 kts 226°
2026-05-04 23:31 38.07690 -78.08154 42919 ft 457 kts 226°
2026-05-04 23:32 38.02931 -78.13528 42919 ft 457 kts 226°
2026-05-04 23:32 37.98082 -78.18786 42934 ft 461 kts 222°
2026-05-04 23:33 37.92901 -78.23633 42933 ft 464 kts 220°
2026-05-04 23:33 37.87701 -78.28414 42933 ft 466 kts 221°
2026-05-04 23:34 37.82479 -78.33316 42931 ft 467 kts 221°
2026-05-04 23:34 37.77278 -78.38257 42918 ft 467 kts 221°
2026-05-04 23:35 37.72074 -78.43203 42933 ft 468 kts 221°
2026-05-04 23:35 37.66859 -78.48147 42939 ft 468 kts 221°
2026-05-04 23:36 37.61642 -78.53081 42940 ft 469 kts 221°
2026-05-04 23:36 37.56413 -78.58016 42943 ft 469 kts 221°
2026-05-04 23:37 37.51219 -78.62909 42946 ft 469 kts 221°
2026-05-04 23:37 37.45989 -78.67828 42951 ft 469 kts 221°
2026-05-04 23:38 37.40748 -78.72748 42950 ft 469 kts 221°
2026-05-04 23:38 37.35512 -78.77655 42954 ft 469 kts 221°
2026-05-04 23:39 37.30271 -78.82558 42960 ft 469 kts 221°
2026-05-04 23:39 37.25031 -78.87451 42965 ft 469 kts 221°
2026-05-04 23:40 37.19789 -78.92338 42967 ft 469 kts 221°
2026-05-04 23:40 37.14582 -78.97183 42964 ft 469 kts 221°
2026-05-04 23:41 37.09346 -79.02057 42967 ft 468 kts 221°
2026-05-04 23:41 37.04104 -79.06915 42963 ft 468 kts 221°
2026-05-04 23:42 36.98862 -79.11762 42962 ft 468 kts 221°
2026-05-04 23:42 36.93625 -79.16600 42958 ft 468 kts 221°
2026-05-04 23:43 36.88383 -79.21436 42962 ft 468 kts 221°
2026-05-04 23:43 36.83136 -79.26268 42961 ft 468 kts 221°
2026-05-04 23:44 36.77896 -79.31085 42963 ft 468 kts 221°
2026-05-04 23:44 36.72649 -79.35901 42968 ft 468 kts 221°
2026-05-04 23:45 36.67433 -79.40678 42970 ft 468 kts 221°
2026-05-04 23:45 36.62145 -79.45514 42969 ft 468 kts 221°
2026-05-04 23:46 36.56931 -79.50275 42969 ft 468 kts 221°
2026-05-04 23:46 36.51635 -79.55101 42968 ft 468 kts 220°
2026-05-04 23:47 36.46416 -79.59850 42980 ft 468 kts 220°
2026-05-04 23:47 36.41147 -79.64636 42982 ft 468 kts 220°
2026-05-04 23:48 36.35878 -79.69413 42984 ft 469 kts 220°
2026-05-04 23:48 36.30615 -79.74177 42985 ft 469 kts 220°
2026-05-04 23:49 36.25338 -79.78945 42981 ft 468 kts 220°
2026-05-04 23:49 36.20106 -79.83674 42994 ft 468 kts 220°
2026-05-04 23:50 36.14834 -79.88416 42998 ft 468 kts 220°
2026-05-04 23:50 36.09558 -79.93154 42999 ft 468 kts 220°
2026-05-04 23:51 36.04123 -79.97612 42996 ft 473 kts 212°
2026-05-04 23:51 35.98071 -80.00926 42994 ft 477 kts 207°
2026-05-04 23:52 35.91889 -80.03974 42999 ft 478 kts 207°
2026-05-04 23:52 35.85694 -80.06985 42999 ft 478 kts 207°
2026-05-04 23:53 35.79500 -80.10015 43000 ft 478 kts 207°
2026-05-04 23:53 35.73366 -80.13030 43000 ft 478 kts 207°
2026-05-04 23:54 35.67186 -80.16066 43004 ft 478 kts 207°
2026-05-04 23:54 35.61012 -80.19094 42997 ft 477 kts 207°
2026-05-04 23:55 35.54831 -80.22119 43038 ft 477 kts 207°
2026-05-04 23:56 35.45607 -80.26624 43051 ft 477 kts 207°
2026-05-04 23:56 35.39440 -80.29630 43049 ft 477 kts 207°
2026-05-04 23:57 35.34268 -80.32147 43042 ft 477 kts 207°
2026-05-04 23:57 35.28138 -80.35125 43037 ft 477 kts 207°
2026-05-04 23:58 35.21970 -80.38118 43028 ft 477 kts 207°
2026-05-04 23:58 35.15802 -80.41105 43021 ft 477 kts 207°
2026-05-04 23:59 35.09622 -80.44094 43023 ft 477 kts 207°
2026-05-04 23:59 35.03453 -80.47072 43026 ft 477 kts 207°
2026-05-05 00:00 34.97312 -80.50032 43036 ft 477 kts 207°
2026-05-05 00:00 34.91139 -80.53002 43027 ft 477 kts 207°
2026-05-05 00:01 34.84957 -80.55972 43029 ft 477 kts 207°
2026-05-05 00:01 34.78764 -80.58942 43033 ft 477 kts 207°
2026-05-05 00:02 34.72587 -80.61900 43030 ft 477 kts 207°
2026-05-05 00:02 34.66462 -80.65003 43032 ft 473 kts 213°
2026-05-05 00:03 34.61173 -80.69439 43034 ft 462 kts 225°
2026-05-05 00:03 34.56338 -80.74572 43034 ft 461 kts 227°
2026-05-05 00:04 34.51573 -80.79801 43031 ft 461 kts 227°
2026-05-05 00:04 34.46796 -80.85017 43035 ft 462 kts 227°
2026-05-05 00:05 34.41998 -80.90210 43031 ft 462 kts 226°
2026-05-05 00:05 34.37221 -80.95358 43035 ft 462 kts 226°
2026-05-05 00:06 34.32236 -81.00314 43036 ft 468 kts 219°
2026-05-05 00:06 34.26302 -81.03790 43038 ft 480 kts 205°
2026-05-05 00:07 34.19938 -81.06330 43032 ft 483 kts 203°
2026-05-05 00:07 34.13517 -81.08729 43031 ft 483 kts 203°
2026-05-05 00:08 34.07085 -81.11151 43034 ft 483 kts 204°
2026-05-05 00:08 34.00663 -81.13600 43035 ft 484 kts 204°
2026-05-05 00:09 33.94246 -81.16058 43034 ft 484 kts 204°
2026-05-05 00:09 33.87862 -81.18499 43034 ft 484 kts 204°
2026-05-05 00:10 33.81431 -81.20954 43033 ft 484 kts 204°
2026-05-05 00:10 33.74991 -81.23407 43031 ft 485 kts 204°
2026-05-05 00:11 33.68559 -81.25853 43033 ft 485 kts 204°
2026-05-05 00:11 33.62114 -81.28299 43032 ft 485 kts 204°
2026-05-05 00:12 33.55717 -81.30724 43036 ft 485 kts 204°
2026-05-05 00:12 33.49269 -81.33164 43042 ft 485 kts 204°
2026-05-05 00:13 33.42822 -81.35600 43056 ft 485 kts 204°
2026-05-05 00:13 33.36374 -81.38033 43060 ft 485 kts 204°
2026-05-05 00:14 33.29923 -81.40464 43061 ft 485 kts 204°
2026-05-05 00:14 33.23550 -81.42955 43062 ft 483 kts 206°
2026-05-05 00:15 33.17243 -81.45705 43061 ft 482 kts 207°
2026-05-05 00:15 33.10941 -81.48474 43057 ft 482 kts 206°
2026-05-05 00:16 33.04617 -81.51204 43055 ft 483 kts 206°
2026-05-05 00:16 32.98290 -81.53907 43056 ft 483 kts 206°
2026-05-05 00:17 32.91968 -81.56597 43057 ft 482 kts 206°
2026-05-05 00:17 32.85673 -81.59358 43068 ft 481 kts 207°
2026-05-05 00:18 32.79461 -81.62200 43074 ft 481 kts 208°
2026-05-05 00:18 32.73213 -81.65054 43088 ft 481 kts 208°
2026-05-05 00:19 32.66964 -81.67883 43091 ft 480 kts 208°
2026-05-05 00:19 32.60713 -81.70699 43087 ft 480 kts 208°
2026-05-05 00:20 32.54463 -81.73510 43052 ft 480 kts 208°
2026-05-05 00:20 32.48217 -81.76315 43060 ft 479 kts 208°
2026-05-05 00:21 32.42017 -81.79097 43051 ft 479 kts 208°
2026-05-05 00:21 32.35778 -81.81890 43055 ft 479 kts 208°
2026-05-05 00:22 32.29589 -81.84658 43070 ft 478 kts 208°
2026-05-05 00:22 32.23358 -81.87441 43066 ft 478 kts 208°
2026-05-05 00:23 32.17130 -81.90219 43071 ft 478 kts 208°
2026-05-05 00:23 32.10877 -81.92926 43080 ft 480 kts 206°
2026-05-05 00:24 32.04479 -81.95286 43071 ft 482 kts 205°
2026-05-05 00:24 31.98098 -81.97570 43067 ft 482 kts 205°
2026-05-05 00:25 31.91696 -81.99917 43063 ft 482 kts 205°
2026-05-05 00:25 31.85224 -82.02108 43061 ft 487 kts 201°
2026-05-05 00:26 31.78594 -82.03827 43069 ft 487 kts 200°
2026-05-05 00:26 31.71959 -82.05513 43078 ft 487 kts 200°
2026-05-05 00:27 31.65325 -82.07190 43084 ft 487 kts 200°
2026-05-05 00:27 31.58687 -82.08865 43090 ft 487 kts 200°
2026-05-05 00:28 31.52057 -82.10535 43082 ft 487 kts 200°
2026-05-05 00:28 31.45469 -82.12191 43076 ft 487 kts 200°
2026-05-05 00:29 31.38822 -82.13860 43062 ft 487 kts 200°
2026-05-05 00:29 31.32183 -82.15525 43060 ft 488 kts 200°
2026-05-05 00:30 31.25548 -82.17186 43059 ft 487 kts 200°
2026-05-05 00:30 31.18945 -82.18836 43062 ft 487 kts 200°
2026-05-05 00:30 31.15652 -82.19655 42852 ft 479 kts 200°
2026-05-05 00:31 31.12421 -82.20455 42603 ft 470 kts 201°
2026-05-05 00:31 31.09228 -82.21252 41808 ft 473 kts 201°
2026-05-05 00:31 31.05974 -82.22073 40714 ft 483 kts 201°
2026-05-05 00:31 31.02663 -82.22904 39857 ft 488 kts 200°
2026-05-05 00:32 30.99324 -82.23735 39348 ft 491 kts 200°
2026-05-05 00:32 30.95971 -82.24568 39122 ft 494 kts 200°
2026-05-05 00:32 30.92604 -82.25404 39086 ft 496 kts 200°
2026-05-05 00:33 30.85848 -82.27078 39087 ft 497 kts 200°
2026-05-05 00:33 30.79079 -82.28754 39089 ft 496 kts 200°
2026-05-05 00:34 30.72367 -82.30415 39088 ft 496 kts 200°
2026-05-05 00:34 30.65513 -82.31926 39093 ft 502 kts 195°
2026-05-05 00:35 30.58590 -82.32806 39097 ft 504 kts 194°
2026-05-05 00:35 30.51610 -82.33667 39102 ft 504 kts 194°
2026-05-05 00:36 30.44655 -82.34531 39090 ft 504 kts 194°
2026-05-05 00:36 30.37706 -82.35396 39074 ft 504 kts 194°
2026-05-05 00:37 30.30737 -82.36262 39075 ft 503 kts 194°
2026-05-05 00:37 30.23775 -82.37126 39061 ft 503 kts 194°
2026-05-05 00:38 30.16799 -82.37866 39054 ft 508 kts 188°
2026-05-05 00:38 30.09685 -82.37567 39057 ft 512 kts 184°
2026-05-05 00:39 30.02565 -82.37152 39056 ft 512 kts 185°
2026-05-05 00:39 29.95505 -82.36748 38311 ft 505 kts 185°
2026-05-05 00:39 29.91994 -82.36554 37337 ft 509 kts 185°
2026-05-05 00:40 29.88439 -82.36359 36357 ft 514 kts 185°
2026-05-05 00:40 29.84892 -82.36164 35404 ft 520 kts 185°
2026-05-05 00:40 29.81257 -82.35963 34446 ft 525 kts 185°
2026-05-05 00:40 29.77604 -82.35761 33472 ft 529 kts 185°
2026-05-05 00:41 29.73917 -82.35555 32641 ft 527 kts 185°
2026-05-05 00:41 29.70258 -82.35349 31918 ft 524 kts 184°
2026-05-05 00:41 29.66614 -82.35144 31268 ft 520 kts 184°
2026-05-05 00:41 29.63071 -82.34946 30701 ft 515 kts 184°
2026-05-05 00:42 29.59514 -82.34747 30153 ft 509 kts 184°
2026-05-05 00:42 29.55997 -82.34557 29498 ft 504 kts 184°
2026-05-05 00:42 29.52504 -82.34366 28858 ft 499 kts 184°
2026-05-05 00:42 29.49038 -82.34174 28162 ft 496 kts 184°
2026-05-05 00:43 29.45597 -82.33984 27516 ft 493 kts 184°
2026-05-05 00:43 29.42183 -82.33796 26913 ft 489 kts 184°
2026-05-05 00:43 29.38796 -82.33601 26314 ft 486 kts 182°
2026-05-05 00:43 29.35428 -82.33228 25723 ft 485 kts 179°
2026-05-05 00:44 29.32093 -82.32783 25145 ft 481 kts 179°
2026-05-05 00:44 29.29891 -82.32495 24775 ft 478 kts 179°
2026-05-05 00:44 29.26590 -82.32077 24221 ft 475 kts 179°
2026-05-05 00:44 29.22266 -82.31545 23466 ft 470 kts 179°
2026-05-05 00:45 29.20071 -82.31279 23033 ft 467 kts 179°
2026-05-05 00:45 29.16853 -82.30892 22442 ft 462 kts 179°
2026-05-05 00:45 29.13679 -82.30511 21851 ft 457 kts 179°
2026-05-05 00:45 29.10530 -82.30135 21273 ft 452 kts 179°
2026-05-05 00:46 29.06416 -82.29645 20524 ft 445 kts 178°
2026-05-05 00:46 29.04377 -82.29403 20162 ft 442 kts 178°
2026-05-05 00:46 29.01337 -82.29042 19610 ft 438 kts 178°
2026-05-05 00:46 28.98323 -82.28684 19057 ft 433 kts 178°
2026-05-05 00:47 28.95339 -82.28330 18523 ft 429 kts 178°
2026-05-05 00:47 28.92382 -82.27980 17926 ft 425 kts 178°
2026-05-05 00:47 28.89454 -82.27634 17305 ft 421 kts 177°
2026-05-05 00:47 28.86549 -82.27291 16679 ft 417 kts 177°
2026-05-05 00:48 28.83676 -82.26951 16110 ft 413 kts 177°
2026-05-05 00:48 28.80841 -82.26616 15441 ft 401 kts 176°
2026-05-05 00:48 28.78112 -82.26292 14404 ft 389 kts 176°
2026-05-05 00:48 28.75465 -82.25980 13636 ft 374 kts 176°
2026-05-05 00:49 28.72898 -82.25787 13169 ft 373 kts 180°
2026-05-05 00:49 28.70298 -82.25734 13005 ft 370 kts 181°
2026-05-05 00:49 28.67767 -82.25698 12994 ft 367 kts 181°
2026-05-05 00:49 28.65209 -82.25662 12994 ft 367 kts 181°
2026-05-05 00:50 28.62659 -82.25628 12989 ft 367 kts 181°
2026-05-05 00:50 28.60101 -82.25585 12989 ft 367 kts 181°
2026-05-05 00:50 28.57547 -82.25533 12983 ft 367 kts 181°
2026-05-05 00:50 28.54987 -82.25481 12996 ft 367 kts 181°
2026-05-05 00:51 28.52433 -82.25431 13000 ft 365 kts 181°
2026-05-05 00:51 28.49947 -82.25394 13007 ft 346 kts 181°
2026-05-05 00:51 28.47580 -82.25361 12842 ft 334 kts 181°
2026-05-05 00:51 28.45320 -82.25330 12666 ft 323 kts 181°
2026-05-05 00:52 28.43104 -82.25301 12440 ft 315 kts 182°
2026-05-05 00:52 28.40932 -82.25273 12087 ft 311 kts 182°
2026-05-05 00:52 28.38775 -82.25246 11732 ft 308 kts 182°
2026-05-05 00:52 28.36662 -82.25470 11339 ft 302 kts 198°
2026-05-05 00:53 28.34828 -82.26538 10983 ft 294 kts 220°
2026-05-05 00:53 28.33259 -82.28006 10606 ft 291 kts 223°
2026-05-05 00:53 28.31726 -82.29501 10237 ft 289 kts 223°
2026-05-05 00:53 28.30203 -82.30974 9879 ft 287 kts 222°
2026-05-05 00:54 28.28684 -82.32442 9448 ft 286 kts 222°
2026-05-05 00:54 28.27169 -82.33895 9017 ft 285 kts 221°
2026-05-05 00:54 28.25656 -82.35338 8602 ft 284 kts 221°
2026-05-05 00:54 28.24146 -82.36777 8195 ft 282 kts 221°
2026-05-05 00:55 28.22655 -82.38196 7905 ft 276 kts 221°
2026-05-05 00:55 28.21194 -82.39579 7716 ft 272 kts 220°
2026-05-05 00:55 28.19631 -82.40689 7553 ft 274 kts 204°
2026-05-05 00:55 28.17765 -82.41135 7376 ft 275 kts 185°
2026-05-05 00:56 28.15849 -82.41191 7208 ft 275 kts 182°
2026-05-05 00:56 28.13942 -82.41211 7033 ft 274 kts 182°
2026-05-05 00:56 28.12040 -82.41241 6864 ft 273 kts 182°
2026-05-05 00:56 28.10142 -82.41279 6688 ft 272 kts 182°
2026-05-05 00:57 28.08253 -82.41320 6521 ft 272 kts 182°
2026-05-05 00:57 28.06368 -82.41363 6344 ft 270 kts 182°
2026-05-05 00:57 28.04480 -82.41407 6145 ft 270 kts 182°
2026-05-05 00:57 28.02608 -82.41450 5748 ft 269 kts 182°
2026-05-05 00:58 28.00730 -82.41496 5317 ft 270 kts 181°
2026-05-05 00:58 27.98897 -82.41540 5138 ft 262 kts 181°
2026-05-05 00:58 27.97111 -82.41581 4978 ft 252 kts 181°
2026-05-05 00:58 27.95505 -82.41613 4866 ft 243 kts 181°
2026-05-05 00:59 27.93847 -82.41646 4728 ft 234 kts 181°
2026-05-05 00:59 27.92237 -82.41681 4515 ft 229 kts 180°
2026-05-05 00:59 27.90654 -82.41721 4256 ft 226 kts 180°
2026-05-05 00:59 27.89089 -82.41763 3995 ft 224 kts 179°
2026-05-05 01:00 27.87539 -82.41800 3752 ft 222 kts 179°
2026-05-05 01:00 27.86009 -82.41839 3470 ft 220 kts 178°
2026-05-05 01:00 27.84477 -82.41876 3179 ft 219 kts 178°
2026-05-05 01:00 27.82968 -82.41915 3017 ft 216 kts 177°
2026-05-05 01:01 27.81478 -82.41950 2983 ft 217 kts 177°
2026-05-05 01:01 27.79957 -82.41990 2983 ft 219 kts 179°
2026-05-05 01:01 27.78472 -82.42428 2982 ft 226 kts 207°
2026-05-05 01:01 27.77372 -82.43697 2984 ft 231 kts 239°
2026-05-05 01:02 27.76907 -82.45442 2987 ft 235 kts 260°
2026-05-05 01:02 27.76726 -82.47262 2986 ft 237 kts 264°
2026-05-05 01:02 27.76570 -82.49111 2980 ft 237 kts 263°
2026-05-05 01:02 27.76424 -82.50967 2993 ft 236 kts 264°
2026-05-05 01:03 27.76426 -82.52824 2993 ft 237 kts 282°
2026-05-05 01:03 27.77142 -82.54464 3031 ft 233 kts 314°
2026-05-05 01:03 27.78483 -82.55379 3030 ft 225 kts 353°
2026-05-05 01:03 27.80003 -82.55267 3047 ft 220 kts 15°
2026-05-05 01:04 27.81513 -82.54939 2929 ft 220 kts 14°
2026-05-05 01:04 27.84545 -82.54627 2313 ft 220 kts
2026-05-05 01:04 27.86052 -82.54591 2026 ft 211 kts
2026-05-05 01:05 27.87474 -82.54541 1759 ft 197 kts
2026-05-05 01:05 27.88807 -82.54491 1495 ft 185 kts
2026-05-05 01:05 27.90044 -82.54451 1259 ft 171 kts
2026-05-05 01:05 27.91193 -82.54411 1037 ft 159 kts
2026-05-05 01:06 27.92185 -82.54377 863 ft 148 kts
2026-05-05 01:06 27.93204 -82.54343 690 ft 146 kts
2026-05-05 01:06 27.94249 -82.54318 469 ft 153 kts
2026-05-05 01:06 27.95323 -82.54288 276 ft 155 kts
2026-05-05 01:07 27.96382 -82.54249 95 ft 147 kts
2026-05-05 01:07 27.97322 -82.54223 63 ft 130 kts
2026-05-05 01:07 27.98147 -82.54178 49 ft 103 kts
2026-05-05 01:07 27.98588 -82.54159 53 ft 21 kts
2026-05-05 01:08 27.98622 -82.54158 50 ft 13 kts
2026-05-05 01:08 27.98703 -82.54111 50 ft 16 kts 58°
2026-05-05 01:08 27.98687 -82.54028 51 ft 7 kts 152°
2026-05-05 01:08 27.98610 -82.54029 50 ft 13 kts 182°
2026-05-05 01:09 27.98521 -82.54034 51 ft 14 kts 183°
2026-05-05 01:09 27.98420 -82.54041 50 ft 15 kts 182°
2026-05-05 01:09 27.98307 -82.54044 50 ft 17 kts 181°
2026-05-05 01:09 27.98181 -82.54048 50 ft 19 kts 181°
2026-05-05 01:10 27.98045 -82.54051 49 ft 20 kts 181°
2026-05-05 01:10 27.97931 -82.54056 50 ft 17 kts 182°
2026-05-05 01:10 27.97809 -82.54061 50 ft 18 kts 181°
2026-05-05 01:10 27.97675 -82.54064 49 ft 20 kts 181°
2026-05-05 01:11 27.97591 -82.54020 51 ft 12 kts 110°
2026-05-05 01:11 27.97587 -82.53918 52 ft 14 kts 93°
2026-05-05 01:11 27.97554 -82.53816 50 ft 12 kts 108°
2026-05-05 01:11 27.97565 -82.53742 49 ft 8 kts 48°
2026-05-05 01:12 27.97586 -82.53723 49 ft 0 kts 37°